Time,TemperatureF,DewpointF,PressureIn,WindDirection,WindDirectionDegrees,WindSpeedMPH,WindSpeedGustMPH,Humidity,HourlyPrecipIn,Conditions,Clouds,dailyrainin,SoftwareType,DateUTC
2013-05-19 00:01:00,65.5,53.6,30.05,South,182,2.0,10.0,65,0.00,,,0.00,WUHU216DAVISVP2,2013-05-19 04:01:00,
2013-05-19 00:02:00,65.5,53.6,30.05,SSE,159,0.0,10.0,65,0.00,,,0.00,WUHU216DAVISVP2,2013-05-19 04:02:00,
2013-05-19 00:07:00,65.7,54.2,30.05,South,179,4.0,10.0,66,0.00,,,0.00,WUHU216DAVISVP2,2013-05-19 04:07:00,
2013-05-19 00:12:00,65.8,54.3,30.05,South,180,2.0,10.0,66,0.00,,,0.00,WUHU216DAVISVP2,2013-05-19 04:12:00,
2013-05-19 00:17:00,65.9,54.4,30.05,SSE,161,6.0,8.0,66,0.00,,,0.00,WUHU216DAVISVP2,2013-05-19 04:17:00,
2013-05-19 00:22:00,66.0,54.9,30.05,ESE,111,0.0,10.0,67,0.00,,,0.00,WUHU216DAVISVP2,2013-05-19 04:22:00,
2013-05-19 00:27:00,66.1,55.4,30.05,South,189,4.0,10.0,68,0.00,,,0.00,WUHU216DAVISVP2,2013-05-19 04:27:00,
2013-05-19 00:32:00,66.2,55.5,30.05,SE,144,6.0,12.0,68,0.00,,,0.00,WUHU216DAVISVP2,2013-05-19 04:32:00,
2013-05-19 00:38:00,66.4,55.7,30.05,SE,128,2.0,12.0,68,0.00,,,0.00,WUHU216DAVISVP2,2013-05-19 04:38:00,
2013-05-19 00:43:00,66.5,56.2,30.05,East,96,10.0,12.0,69,0.00,,,0.00,WUHU216DAVISVP2,2013-05-19 04:43:00,
2013-05-19 00:48:00,66.5,56.6,30.06,SE,141,10.0,20.0,70,0.00,,,0.00,WUHU216DAVISVP2,2013-05-19 04:48:00,
2013-05-19 00:53:00,66.5,56.6,30.06,SE,137,2.0,20.0,70,0.00,,,0.00,WUHU216DAVISVP2,2013-05-19 04:53:00,
2013-05-19 00:58:00,66.5,56.6,30.06,South,173,2.0,14.0,70,0.00,,,0.00,WUHU216DAVISVP2,2013-05-19 04:58:00,
2013-05-19 01:04:00,66.5,56.4,30.06,SW,216,2.0,14.0,70,0.00,,,0.00,WUHU216DAVISVP2,2013-05-19 05:04:00,
2013-05-19 01:09:00,66.3,56.8,30.06,East,98,0.0,14.0,71,0.00,,,0.00,WUHU216DAVISVP2,2013-05-19 05:09:00,
2013-05-19 01:14:00,66.2,57.1,30.05,SSW,213,4.0,14.0,72,0.00,,,0.00,WUHU216DAVISVP2,2013-05-19 05:14:00,
2013-05-19 01:19:00,66.2,57.1,30.05,South,188,2.0,14.0,72,0.00,,,0.00,WUHU216DAVISVP2,2013-05-19 05:19:00,
2013-05-19 01:25:00,66.1,57.3,30.05,ESE,111,0.0,14.0,73,0.00,,,0.00,WUHU216DAVISVP2,2013-05-19 05:25:00,
2013-05-19 01:30:00,66.0,57.6,30.05,SSW,199,12.0,22.0,74,0.00,,,0.00,WUHU216DAVISVP2,2013-05-19 05:30:00,
2013-05-19 01:35:00,66.0,57.6,30.05,SSE,150,2.0,22.0,74,0.00,,,0.00,WUHU216DAVISVP2,2013-05-19 05:35:00,
2013-05-19 01:40:00,66.0,58.0,30.05,ESE,115,2.0,12.0,75,0.00,,,0.00,WUHU216DAVISVP2,2013-05-19 05:40:00,
2013-05-19 01:45:00,66.0,58.0,30.05,SSW,194,6.0,16.0,75,0.00,,,0.00,WUHU216DAVISVP2,2013-05-19 05:45:00,
2013-05-19 01:50:00,66.0,58.0,30.05,SE,146,6.0,16.0,75,0.00,,,0.00,WUHU216DAVISVP2,2013-05-19 05:50:00,
2013-05-19 01:55:00,66.0,58.0,30.05,SSW,207,6.0,24.0,75,0.00,,,0.00,WUHU216DAVISVP2,2013-05-19 05:55:00,
2013-05-19 02:00:00,65.9,58.2,30.05,South,179,2.0,24.0,76,0.00,,,0.00,WUHU216DAVISVP2,2013-05-19 06:00:00,
2013-05-19 02:05:00,65.9,58.2,30.05,WSW,243,0.0,18.0,76,0.00,,,0.00,WUHU216DAVISVP2,2013-05-19 06:05:00,
2013-05-19 02:10:00,65.8,58.1,30.05,SSW,205,4.0,18.0,76,0.00,,,0.00,WUHU216DAVISVP2,2013-05-19 06:10:00,
2013-05-19 02:15:00,65.6,58.3,30.05,South,179,6.0,16.0,77,0.00,,,0.00,WUHU216DAVISVP2,2013-05-19 06:15:00,
2013-05-19 02:20:00,65.5,58.2,30.05,SSW,194,2.0,16.0,77,0.00,,,0.00,WUHU216DAVISVP2,2013-05-19 06:20:00,
2013-05-19 02:25:00,65.4,58.1,30.05,East,101,4.0,10.0,77,0.00,,,0.00,WUHU216DAVISVP2,2013-05-19 06:25:00,
2013-05-19 02:30:00,65.2,58.3,30.05,SSW,196,0.0,12.0,78,0.00,,,0.00,WUHU216DAVISVP2,2013-05-19 06:30:00,
2013-05-19 02:35:00,65.0,58.1,30.05,SE,140,6.0,12.0,78,0.00,,,0.00,WUHU216DAVISVP2,2013-05-19 06:35:00,
2013-05-19 02:40:00,64.9,58.3,30.05,ESE,117,2.0,14.0,79,0.00,,,0.00,WUHU216DAVISVP2,2013-05-19 06:40:00,
2013-05-19 02:45:00,64.9,58.3,30.05,SSE,166,0.0,16.0,79,0.00,,,0.00,WUHU216DAVISVP2,2013-05-19 06:45:00,
2013-05-19 02:50:00,64.8,58.2,30.04,SSE,151,6.0,16.0,79,0.00,,,0.00,WUHU216DAVISVP2,2013-05-19 06:50:00,
2013-05-19 02:55:00,64.7,58.5,30.04,SSW,205,6.0,16.0,80,0.00,,,0.00,WUHU216DAVISVP2,2013-05-19 06:55:00,
2013-05-19 03:00:00,64.5,58.3,30.04,South,184,2.0,10.0,80,0.00,,,0.00,WUHU216DAVISVP2,2013-05-19 07:00:00,
2013-05-19 03:06:00,64.4,58.2,30.04,SE,132,0.0,8.0,80,0.00,,,0.00,WUHU216DAVISVP2,2013-05-19 07:06:00,
2013-05-19 03:11:00,64.3,58.4,30.04,SSW,205,0.0,14.0,81,0.00,,,0.00,WUHU216DAVISVP2,2013-05-19 07:11:00,
2013-05-19 03:16:00,64.1,58.2,30.04,SSE,150,0.0,14.0,81,0.00,,,0.00,WUHU216DAVISVP2,2013-05-19 07:16:00,
2013-05-19 03:21:00,64.0,58.4,30.04,SW,226,14.0,18.0,82,0.00,,,0.00,WUHU216DAVISVP2,2013-05-19 07:21:00,
2013-05-19 03:26:00,63.9,58.3,30.03,SW,222,0.0,18.0,82,0.00,,,0.00,WUHU216DAVISVP2,2013-05-19 07:26:00,
2013-05-19 03:31:00,63.8,58.6,30.03,SSE,167,10.0,18.0,83,0.00,,,0.00,WUHU216DAVISVP2,2013-05-19 07:31:00,
2013-05-19 03:36:00,63.8,58.6,30.04,ESE,117,6.0,18.0,83,0.00,,,0.00,WUHU216DAVISVP2,2013-05-19 07:36:00,
2013-05-19 03:41:00,63.7,58.5,30.04,SE,131,4.0,14.0,83,0.00,,,0.00,WUHU216DAVISVP2,2013-05-19 07:41:00,
2013-05-19 03:46:00,63.6,58.4,30.04,SSW,210,6.0,14.0,83,0.00,,,0.00,WUHU216DAVISVP2,2013-05-19 07:46:00,
2013-05-19 03:51:00,63.5,58.3,30.04,SE,146,2.0,12.0,83,0.00,,,0.00,WUHU216DAVISVP2,2013-05-19 07:51:00,
2013-05-19 03:56:00,63.3,58.4,30.04,South,186,2.0,12.0,84,0.00,,,0.00,WUHU216DAVISVP2,2013-05-19 07:56:00,
2013-05-19 04:01:00,63.2,58.3,30.04,SE,146,2.0,14.0,84,0.00,,,0.00,WUHU216DAVISVP2,2013-05-19 08:01:00,
2013-05-19 04:06:00,63.1,58.5,30.04,NE,51,6.0,14.0,85,0.00,,,0.00,WUHU216DAVISVP2,2013-05-19 08:06:00,
2013-05-19 04:11:00,63.0,58.4,30.04,South,179,2.0,14.0,85,0.00,,,0.00,WUHU216DAVISVP2,2013-05-19 08:11:00,
2013-05-19 04:16:00,62.8,58.2,30.04,East,101,2.0,14.0,85,0.00,,,0.00,WUHU216DAVISVP2,2013-05-19 08:16:00,
2013-05-19 04:21:00,62.7,58.5,30.04,SSE,168,2.0,14.0,86,0.00,,,0.00,WUHU216DAVISVP2,2013-05-19 08:21:00,
2013-05-19 04:26:00,62.6,58.4,30.04,SE,131,0.0,14.0,86,0.00,,,0.00,WUHU216DAVISVP2,2013-05-19 08:26:00,
2013-05-19 04:31:00,62.5,58.3,30.04,SSE,164,0.0,14.0,86,0.00,,,0.00,WUHU216DAVISVP2,2013-05-19 08:31:00,
2013-05-19 04:36:00,62.4,58.2,30.04,SSE,167,2.0,14.0,86,0.00,,,0.00,WUHU216DAVISVP2,2013-05-19 08:36:00,
2013-05-19 04:41:00,62.3,58.1,30.04,SSW,202,2.0,14.0,86,0.00,,,0.00,WUHU216DAVISVP2,2013-05-19 08:41:00,
2013-05-19 04:46:00,62.3,58.4,30.04,South,169,6.0,20.0,87,0.00,,,0.00,WUHU216DAVISVP2,2013-05-19 08:46:00,
2013-05-19 04:52:00,62.2,58.3,30.05,SW,229,8.0,20.0,87,0.00,,,0.00,WUHU216DAVISVP2,2013-05-19 08:52:00,
2013-05-19 04:57:00,62.1,58.2,30.05,South,173,8.0,14.0,87,0.00,,,0.00,WUHU216DAVISVP2,2013-05-19 08:57:00,
2013-05-19 05:02:00,62.0,58.1,30.05,SSW,196,2.0,12.0,87,0.00,,,0.00,WUHU216DAVISVP2,2013-05-19 09:02:00,
2013-05-19 05:07:00,62.0,58.1,30.05,South,186,2.0,12.0,87,0.00,,,0.00,WUHU216DAVISVP2,2013-05-19 09:07:00,
2013-05-19 05:12:00,61.9,58.3,30.05,South,173,8.0,14.0,88,0.00,,,0.00,WUHU216DAVISVP2,2013-05-19 09:12:00,
2013-05-19 05:17:00,61.7,58.1,30.05,SE,135,6.0,14.0,88,0.00,,,0.00,WUHU216DAVISVP2,2013-05-19 09:17:00,
2013-05-19 05:22:00,61.7,58.1,30.06,ESE,103,2.0,18.0,88,0.00,,,0.00,WUHU216DAVISVP2,2013-05-19 09:22:00,
2013-05-19 05:27:00,61.6,58.0,30.06,ESE,112,0.0,18.0,88,0.00,,,0.00,WUHU216DAVISVP2,2013-05-19 09:27:00,
2013-05-19 05:32:00,61.5,57.9,30.06,SSE,161,2.0,14.0,88,0.00,,,0.00,WUHU216DAVISVP2,2013-05-19 09:32:00,
2013-05-19 05:37:00,61.5,57.9,30.06,ESE,109,10.0,16.0,88,0.00,,,0.00,WUHU216DAVISVP2,2013-05-19 09:37:00,
2013-05-19 05:42:00,61.4,57.8,30.06,SE,139,0.0,16.0,88,0.00,,,0.00,WUHU216DAVISVP2,2013-05-19 09:42:00,
2013-05-19 05:47:00,61.4,57.8,30.06,South,184,6.0,16.0,88,0.00,,,0.00,WUHU216DAVISVP2,2013-05-19 09:47:00,
2013-05-19 05:52:00,61.3,58.0,30.06,SE,134,6.0,16.0,89,0.00,,,0.00,WUHU216DAVISVP2,2013-05-19 09:52:00,
2013-05-19 05:57:00,61.3,58.0,30.06,SE,142,0.0,16.0,89,0.00,,,0.00,WUHU216DAVISVP2,2013-05-19 09:57:00,
2013-05-19 06:02:00,61.3,58.0,30.06,ESE,119,0.0,26.0,89,0.00,,,0.00,WUHU216DAVISVP2,2013-05-19 10:02:00,
2013-05-19 06:07:00,61.3,58.0,30.07,South,169,0.0,26.0,89,0.00,,,0.00,WUHU216DAVISVP2,2013-05-19 10:07:00,
2013-05-19 06:12:00,61.3,58.0,30.07,SW,221,0.0,18.0,89,0.00,,,0.00,WUHU216DAVISVP2,2013-05-19 10:12:00,
2013-05-19 06:17:00,61.2,57.9,30.07,SE,126,6.0,18.0,89,0.00,,,0.00,WUHU216DAVISVP2,2013-05-19 10:17:00,
2013-05-19 06:22:00,61.3,58.0,30.07,SSE,149,4.0,18.0,89,0.00,,,0.00,WUHU216DAVISVP2,2013-05-19 10:22:00,
2013-05-19 06:27:00,61.2,57.9,30.07,SSE,163,2.0,12.0,89,0.00,,,0.00,WUHU216DAVISVP2,2013-05-19 10:27:00,
2013-05-19 06:32:00,61.3,58.0,30.07,South,184,4.0,10.0,89,0.00,,,0.00,WUHU216DAVISVP2,2013-05-19 10:32:00,
2013-05-19 06:37:00,61.3,58.0,30.08,SE,126,6.0,18.0,89,0.00,,,0.00,WUHU216DAVISVP2,2013-05-19 10:37:00,
2013-05-19 06:42:00,61.4,58.1,30.08,East,99,2.0,18.0,89,0.00,,,0.00,WUHU216DAVISVP2,2013-05-19 10:42:00,
2013-05-19 06:47:00,61.5,58.2,30.08,SSE,150,4.0,12.0,89,0.00,,,0.00,WUHU216DAVISVP2,2013-05-19 10:47:00,
2013-05-19 06:52:00,61.6,58.3,30.08,SSE,157,18.0,22.0,89,0.00,,,0.00,WUHU216DAVISVP2,2013-05-19 10:52:00,
2013-05-19 06:57:00,61.8,58.2,30.08,SSE,162,2.0,22.0,88,0.00,,,0.00,WUHU216DAVISVP2,2013-05-19 10:57:00,
2013-05-19 07:02:00,62.0,58.4,30.08,South,169,10.0,16.0,88,0.00,,,0.00,WUHU216DAVISVP2,2013-05-19 11:02:00,
2013-05-19 07:07:00,62.1,58.5,30.08,South,182,6.0,16.0,88,0.00,,,0.00,WUHU216DAVISVP2,2013-05-19 11:07:00,
2013-05-19 07:12:00,62.3,58.7,30.08,SSE,168,12.0,18.0,88,0.00,,,0.00,WUHU216DAVISVP2,2013-05-19 11:12:00,
2013-05-19 07:18:00,62.4,58.5,30.08,South,170,10.0,22.0,87,0.00,,,0.00,WUHU216DAVISVP2,2013-05-19 11:18:00,
2013-05-19 07:23:00,62.5,58.6,30.08,SW,233,6.0,22.0,87,0.00,,,0.00,WUHU216DAVISVP2,2013-05-19 11:23:00,
2013-05-19 07:28:00,62.6,58.7,30.08,East,94,2.0,18.0,87,0.00,,,0.00,WUHU216DAVISVP2,2013-05-19 11:28:00,
2013-05-19 07:33:00,62.8,58.9,30.08,SE,144,4.0,20.0,87,0.00,,,0.00,WUHU216DAVISVP2,2013-05-19 11:33:00,
2013-05-19 07:38:00,62.9,59.0,30.08,SSE,165,12.0,20.0,87,0.00,,,0.00,WUHU216DAVISVP2,2013-05-19 11:38:00,
2013-05-19 07:43:00,63.1,58.8,30.09,SSE,161,0.0,14.0,86,0.00,,,0.00,WUHU216DAVISVP2,2013-05-19 11:43:00,
2013-05-19 07:48:00,63.3,59.0,30.08,SSW,194,10.0,18.0,86,0.00,,,0.00,WUHU216DAVISVP2,2013-05-19 11:48:00,
2013-05-19 07:53:00,63.3,59.0,30.08,SSE,155,4.0,20.0,86,0.00,,,0.00,WUHU216DAVISVP2,2013-05-19 11:53:00,
2013-05-19 07:58:00,63.3,59.0,30.08,South,177,6.0,20.0,86,0.00,,,0.00,WUHU216DAVISVP2,2013-05-19 11:58:00,
2013-05-19 08:03:00,63.4,59.1,30.08,ESE,104,2.0,20.0,86,0.00,,,0.00,WUHU216DAVISVP2,2013-05-19 12:03:00,
2013-05-19 08:08:00,63.6,59.3,30.09,WSW,240,2.0,16.0,86,0.00,,,0.00,WUHU216DAVISVP2,2013-05-19 12:08:00,
2013-05-19 08:13:00,63.7,59.4,30.09,South,179,4.0,16.0,86,0.00,,,0.00,WUHU216DAVISVP2,2013-05-19 12:13:00,
2013-05-19 08:18:00,63.8,59.2,30.09,South,180,2.0,20.0,85,0.00,,,0.00,WUHU216DAVISVP2,2013-05-19 12:18:00,
2013-05-19 08:23:00,63.9,59.3,30.09,WNW,300,6.0,20.0,85,0.00,,,0.00,WUHU216DAVISVP2,2013-05-19 12:23:00,
2013-05-19 08:28:00,64.1,59.5,30.09,SSE,151,2.0,18.0,85,0.00,,,0.00,WUHU216DAVISVP2,2013-05-19 12:28:00,
2013-05-19 08:33:00,64.3,59.7,30.09,SSW,197,6.0,18.0,85,0.00,,,0.00,WUHU216DAVISVP2,2013-05-19 12:33:00,
2013-05-19 08:38:00,64.8,59.9,30.09,SSE,166,0.0,12.0,84,0.00,,,0.00,WUHU216DAVISVP2,2013-05-19 12:38:00,
2013-05-19 08:43:00,65.5,60.2,30.08,SSE,160,2.0,16.0,83,0.00,,,0.00,WUHU216DAVISVP2,2013-05-19 12:43:00,
2013-05-19 08:48:00,65.9,60.3,30.08,SW,226,8.0,18.0,82,0.00,,,0.00,WUHU216DAVISVP2,2013-05-19 12:48:00,
2013-05-19 08:53:00,66.3,60.4,30.08,SSE,161,8.0,18.0,81,0.00,,,0.00,WUHU216DAVISVP2,2013-05-19 12:53:00,
2013-05-19 08:59:00,66.7,60.7,30.08,SSW,192,12.0,22.0,81,0.00,,,0.00,WUHU216DAVISVP2,2013-05-19 12:59:00,
2013-05-19 09:04:00,67.0,61.0,30.08,SSW,198,0.0,22.0,81,0.00,,,0.00,WUHU216DAVISVP2,2013-05-19 13:04:00,
2013-05-19 09:09:00,67.6,61.3,30.08,ESE,123,4.0,16.0,80,0.00,,,0.00,WUHU216DAVISVP2,2013-05-19 13:09:00,
2013-05-19 09:14:00,68.2,61.5,30.08,South,182,8.0,12.0,79,0.00,,,0.00,WUHU216DAVISVP2,2013-05-19 13:14:00,
2013-05-19 09:19:00,68.7,61.7,30.08,South,180,6.0,12.0,78,0.00,,,0.00,WUHU216DAVISVP2,2013-05-19 13:19:00,
2013-05-19 09:24:00,69.2,61.8,30.07,SSW,196,4.0,12.0,77,0.00,,,0.00,WUHU216DAVISVP2,2013-05-19 13:24:00,
2013-05-19 09:29:00,69.7,61.9,30.07,East,91,6.0,10.0,76,0.00,,,0.00,WUHU216DAVISVP2,2013-05-19 13:29:00,
2013-05-19 09:34:00,70.1,61.9,30.07,SSW,210,0.0,14.0,75,0.00,,,0.00,WUHU216DAVISVP2,2013-05-19 13:34:00,
2013-05-19 09:39:00,70.5,62.7,30.07,SW,220,4.0,14.0,76,0.00,,,0.00,WUHU216DAVISVP2,2013-05-19 13:39:00,
2013-05-19 09:44:00,70.8,62.3,30.07,SW,230,2.0,14.0,74,0.00,,,0.00,WUHU216DAVISVP2,2013-05-19 13:44:00,
2013-05-19 09:49:00,71.0,62.4,30.07,East,99,12.0,14.0,74,0.00,,,0.00,WUHU216DAVISVP2,2013-05-19 13:49:00,
2013-05-19 09:54:00,71.2,62.6,30.07,SSW,199,10.0,14.0,74,0.00,,,0.00,WUHU216DAVISVP2,2013-05-19 13:54:00,
2013-05-19 09:59:00,71.6,62.6,30.06,ESE,104,4.0,14.0,73,0.00,,,0.00,WUHU216DAVISVP2,2013-05-19 13:59:00,
2013-05-19 10:04:00,71.6,62.3,30.06,South,191,4.0,20.0,72,0.00,,,0.00,WUHU216DAVISVP2,2013-05-19 14:04:00,
2013-05-19 10:09:00,71.7,62.7,30.06,East,80,6.0,20.0,73,0.00,,,0.00,WUHU216DAVISVP2,2013-05-19 14:09:00,
2013-05-19 10:14:00,71.7,62.7,30.05,SSE,159,6.0,18.0,73,0.00,,,0.00,WUHU216DAVISVP2,2013-05-19 14:14:00,
2013-05-19 10:19:00,72.0,62.7,30.05,SE,134,8.0,26.0,72,0.00,,,0.00,WUHU216DAVISVP2,2013-05-19 14:19:00,
2013-05-19 10:25:00,72.4,63.4,30.05,ENE,78,8.0,26.0,73,0.00,,,0.00,WUHU216DAVISVP2,2013-05-19 14:25:00,
2013-05-19 10:30:00,72.9,63.5,30.05,West,277,8.0,20.0,72,0.00,,,0.00,WUHU216DAVISVP2,2013-05-19 14:30:00,
2013-05-19 10:35:00,73.3,63.1,30.06,South,181,4.0,16.0,70,0.00,,,0.00,WUHU216DAVISVP2,2013-05-19 14:35:00,
2013-05-19 10:40:00,73.4,63.6,30.05,ESE,109,0.0,16.0,71,0.00,,,0.00,WUHU216DAVISVP2,2013-05-19 14:40:00,
2013-05-19 10:45:00,73.5,63.3,30.06,West,278,2.0,14.0,70,0.00,,,0.00,WUHU216DAVISVP2,2013-05-19 14:45:00,
2013-05-19 10:50:00,73.7,63.5,30.06,SW,234,8.0,14.0,70,0.00,,,0.00,WUHU216DAVISVP2,2013-05-19 14:50:00,
2013-05-19 10:55:00,74.3,63.7,30.06,South,188,10.0,16.0,69,0.00,,,0.00,WUHU216DAVISVP2,2013-05-19 14:55:00,
2013-05-19 11:00:00,74.2,63.6,30.05,South,182,2.0,18.0,69,0.00,,,0.00,WUHU216DAVISVP2,2013-05-19 15:00:00,
2013-05-19 11:05:00,74.6,64.0,30.05,ENE,71,6.0,18.0,69,0.00,,,0.00,WUHU216DAVISVP2,2013-05-19 15:05:00,
2013-05-19 11:10:00,74.8,63.7,30.05,SW,224,6.0,24.0,68,0.00,,,0.00,WUHU216DAVISVP2,2013-05-19 15:10:00,
2013-05-19 11:15:00,75.0,64.3,30.05,South,189,2.0,24.0,69,0.00,,,0.00,WUHU216DAVISVP2,2013-05-19 15:15:00,
2013-05-19 11:20:00,75.6,64.1,30.05,SSE,165,10.0,12.0,67,0.00,,,0.00,WUHU216DAVISVP2,2013-05-19 15:20:00,
2013-05-19 11:25:00,76.2,64.7,30.05,SSE,157,4.0,12.0,67,0.00,,,0.00,WUHU216DAVISVP2,2013-05-19 15:25:00,
2013-05-19 11:30:00,76.6,64.6,30.05,SE,144,12.0,18.0,66,0.00,,,0.00,WUHU216DAVISVP2,2013-05-19 15:30:00,
2013-05-19 11:35:00,76.3,64.3,30.04,ESE,105,4.0,18.0,66,0.00,,,0.00,WUHU216DAVISVP2,2013-05-19 15:35:00,
2013-05-19 11:40:00,76.4,64.0,30.05,SSW,203,8.0,20.0,65,0.00,,,0.00,WUHU216DAVISVP2,2013-05-19 15:40:00,
2013-05-19 11:45:00,76.2,64.2,30.04,WNW,303,4.0,20.0,66,0.00,,,0.00,WUHU216DAVISVP2,2013-05-19 15:45:00,
2013-05-19 11:50:00,76.2,64.2,30.04,SE,143,4.0,22.0,66,0.00,,,0.00,WUHU216DAVISVP2,2013-05-19 15:50:00,
2013-05-19 11:55:00,77.1,65.5,30.04,ESE,107,6.0,22.0,67,0.00,,,0.00,WUHU216DAVISVP2,2013-05-19 15:55:00,
2013-05-19 12:00:00,77.5,64.6,30.03,ESE,104,4.0,18.0,64,0.00,,,0.00,WUHU216DAVISVP2,2013-05-19 16:00:00,
2013-05-19 12:05:00,77.5,64.1,30.03,SSW,202,0.0,20.0,63,0.00,,,0.00,WUHU216DAVISVP2,2013-05-19 16:05:00,
2013-05-19 12:10:00,77.8,64.9,30.03,SSE,160,4.0,20.0,64,0.00,,,0.00,WUHU216DAVISVP2,2013-05-19 16:10:00,
2013-05-19 12:16:00,78.0,64.2,30.03,SSE,161,10.0,24.0,62,0.00,,,0.00,WUHU216DAVISVP2,2013-05-19 16:16:00,
2013-05-19 12:21:00,78.4,65.0,30.03,ENE,68,6.0,24.0,63,0.00,,,0.00,WUHU216DAVISVP2,2013-05-19 16:21:00,
2013-05-19 12:26:00,78.9,65.0,30.03,WSW,242,2.0,14.0,62,0.00,,,0.00,WUHU216DAVISVP2,2013-05-19 16:26:00,
2013-05-19 12:31:00,79.6,64.7,30.03,ESE,117,2.0,12.0,60,0.00,,,0.00,WUHU216DAVISVP2,2013-05-19 16:31:00,
2013-05-19 12:36:00,80.1,64.7,30.03,SSE,165,4.0,12.0,59,0.00,,,0.00,WUHU216DAVISVP2,2013-05-19 16:36:00,
2013-05-19 12:41:00,80.0,64.6,30.03,ESE,111,0.0,12.0,59,0.00,,,0.00,WUHU216DAVISVP2,2013-05-19 16:41:00,
2013-05-19 12:46:00,80.2,65.3,30.03,East,95,0.0,14.0,60,0.00,,,0.00,WUHU216DAVISVP2,2013-05-19 16:46:00,
2013-05-19 12:51:00,80.3,63.9,30.03,South,189,2.0,14.0,57,0.00,,,0.00,WUHU216DAVISVP2,2013-05-19 16:51:00,
2013-05-19 12:56:00,80.4,64.5,30.03,SSE,167,12.0,16.0,58,0.00,,,0.00,WUHU216DAVISVP2,2013-05-19 16:56:00,
2013-05-19 13:01:00,80.5,64.6,30.03,ESE,121,4.0,16.0,58,0.00,,,0.00,WUHU216DAVISVP2,2013-05-19 17:01:00,
2013-05-19 13:06:00,80.9,66.0,30.03,SE,136,6.0,14.0,60,0.00,,,0.00,WUHU216DAVISVP2,2013-05-19 17:06:00,
2013-05-19 13:11:00,81.4,64.9,30.04,South,181,2.0,14.0,57,0.00,,,0.00,WUHU216DAVISVP2,2013-05-19 17:11:00,
2013-05-19 13:16:00,81.0,64.0,30.04,ESE,103,4.0,18.0,56,0.00,,,0.00,WUHU216DAVISVP2,2013-05-19 17:16:00,
2013-05-19 13:21:00,80.3,64.4,30.04,East,82,2.0,18.0,58,0.00,,,0.00,WUHU216DAVISVP2,2013-05-19 17:21:00,
2013-05-19 13:26:00,80.1,64.7,30.03,South,184,4.0,8.0,59,0.00,,,0.00,WUHU216DAVISVP2,2013-05-19 17:26:00,
2013-05-19 13:31:00,80.3,64.9,30.03,WSW,244,0.0,14.0,59,0.00,,,0.00,WUHU216DAVISVP2,2013-05-19 17:31:00,
2013-05-19 13:36:00,80.6,64.2,30.02,ESE,104,0.0,14.0,57,0.00,,,0.00,WUHU216DAVISVP2,2013-05-19 17:36:00,
2013-05-19 13:41:00,81.3,63.8,30.02,SE,138,4.0,14.0,55,0.00,,,0.00,WUHU216DAVISVP2,2013-05-19 17:41:00,
2013-05-19 13:46:00,81.0,64.0,30.02,SSE,164,0.0,20.0,56,0.00,,,0.00,WUHU216DAVISVP2,2013-05-19 17:46:00,
2013-05-19 13:51:00,81.1,64.1,30.02,SSW,211,0.0,20.0,56,0.00,,,0.00,WUHU216DAVISVP2,2013-05-19 17:51:00,
2013-05-19 13:56:00,82.1,66.1,30.01,ESE,115,6.0,16.0,58,0.00,,,0.00,WUHU216DAVISVP2,2013-05-19 17:56:00,
2013-05-19 14:01:00,82.3,63.6,30.01,SSW,207,10.0,16.0,53,0.00,,,0.00,WUHU216DAVISVP2,2013-05-19 18:01:00,
2013-05-19 14:06:00,81.6,64.1,30.00,SE,140,8.0,20.0,55,0.00,,,0.00,WUHU216DAVISVP2,2013-05-19 18:06:00,
2013-05-19 14:11:00,81.6,64.1,30.00,ENE,63,4.0,20.0,55,0.00,,,0.00,WUHU216DAVISVP2,2013-05-19 18:11:00,
2013-05-19 14:16:00,82.1,64.5,30.00,NNE,19,0.0,14.0,55,0.00,,,0.00,WUHU216DAVISVP2,2013-05-19 18:16:00,
2013-05-19 14:21:00,82.0,64.4,29.99,SW,231,8.0,14.0,55,0.00,,,0.00,WUHU216DAVISVP2,2013-05-19 18:21:00,
2013-05-19 14:26:00,81.9,64.9,29.99,South,184,8.0,18.0,56,0.00,,,0.00,WUHU216DAVISVP2,2013-05-19 18:26:00,
2013-05-19 14:31:00,81.9,64.9,29.99,SE,133,2.0,18.0,56,0.00,,,0.00,WUHU216DAVISVP2,2013-05-19 18:31:00,
2013-05-19 14:36:00,82.3,64.2,29.99,South,188,10.0,14.0,54,0.00,,,0.00,WUHU216DAVISVP2,2013-05-19 18:36:00,
2013-05-19 14:42:00,82.8,65.7,29.99,SSW,213,2.0,10.0,56,0.00,,,0.00,WUHU216DAVISVP2,2013-05-19 18:42:00,
2013-05-19 14:47:00,83.2,64.5,29.98,SSW,195,2.0,10.0,53,0.00,,,0.00,WUHU216DAVISVP2,2013-05-19 18:47:00,
2013-05-19 14:52:00,83.6,65.4,29.98,ESE,113,6.0,10.0,54,0.00,,,0.00,WUHU216DAVISVP2,2013-05-19 18:52:00,
2013-05-19 14:57:00,83.2,63.9,29.98,SE,141,0.0,12.0,52,0.00,,,0.00,WUHU216DAVISVP2,2013-05-19 18:57:00,
2013-05-19 15:02:00,82.9,64.2,29.98,SSW,199,0.0,12.0,53,0.00,,,0.00,WUHU216DAVISVP2,2013-05-19 19:02:00,
2013-05-19 15:07:00,82.8,63.5,29.98,ESE,103,0.0,14.0,52,0.00,,,0.00,WUHU216DAVISVP2,2013-05-19 19:07:00,
2013-05-19 15:12:00,82.2,63.5,29.98,SW,229,2.0,14.0,53,0.00,,,0.00,WUHU216DAVISVP2,2013-05-19 19:12:00,
2013-05-19 15:18:00,82.1,63.3,29.98,SW,216,8.0,14.0,53,0.00,,,0.00,WUHU216DAVISVP2,2013-05-19 19:18:00,
2013-05-19 15:23:00,82.1,64.5,29.98,SSE,158,2.0,14.0,55,0.00,,,0.00,WUHU216DAVISVP2,2013-05-19 19:23:00,
2013-05-19 15:28:00,81.8,63.7,29.98,East,94,2.0,14.0,54,0.00,,,0.00,WUHU216DAVISVP2,2013-05-19 19:28:00,
2013-05-19 15:33:00,81.5,63.4,29.98,East,98,4.0,14.0,54,0.00,,,0.00,WUHU216DAVISVP2,2013-05-19 19:33:00,
2013-05-19 15:38:00,81.6,64.6,29.98,SE,142,0.0,8.0,56,0.00,,,0.00,WUHU216DAVISVP2,2013-05-19 19:38:00,
2013-05-19 15:43:00,82.5,63.8,29.98,SW,218,6.0,10.0,53,0.00,,,0.00,WUHU216DAVISVP2,2013-05-19 19:43:00,
2013-05-19 15:48:00,83.3,64.0,29.98,East,84,6.0,10.0,52,0.00,,,0.00,WUHU216DAVISVP2,2013-05-19 19:48:00,
2013-05-19 15:53:00,83.5,63.6,29.98,SSW,202,2.0,8.0,51,0.00,,,0.00,WUHU216DAVISVP2,2013-05-19 19:53:00,
2013-05-19 15:59:00,83.6,63.7,29.98,South,171,4.0,8.0,51,0.00,,,0.00,WUHU216DAVISVP2,2013-05-19 19:59:00,
2013-05-19 16:04:00,83.1,62.7,29.98,South,173,6.0,12.0,50,0.00,,,0.00,WUHU216DAVISVP2,2013-05-19 20:04:00,
2013-05-19 16:09:00,82.6,62.8,29.98,SSE,154,2.0,12.0,51,0.00,,,0.00,WUHU216DAVISVP2,2013-05-19 20:09:00,
2013-05-19 16:14:00,82.1,62.9,29.98,WNW,288,6.0,12.0,52,0.00,,,0.00,WUHU216DAVISVP2,2013-05-19 20:14:00,
2013-05-19 16:19:00,81.7,63.1,29.98,SW,217,4.0,8.0,53,0.00,,,0.00,WUHU216DAVISVP2,2013-05-19 20:19:00,
2013-05-19 16:24:00,81.6,63.0,29.98,SSW,200,0.0,4.0,53,0.00,,,0.00,WUHU216DAVISVP2,2013-05-19 20:24:00,
2013-05-19 16:29:00,81.8,63.7,29.98,SSE,160,0.0,4.0,54,0.00,,,0.00,WUHU216DAVISVP2,2013-05-19 20:29:00,
2013-05-19 16:34:00,82.2,64.1,29.98,SSE,166,0.0,4.0,54,0.00,,,0.00,WUHU216DAVISVP2,2013-05-19 20:34:00,
2013-05-19 16:39:00,82.3,62.5,29.98,WNW,288,2.0,6.0,51,0.00,,,0.00,WUHU216DAVISVP2,2013-05-19 20:39:00,
2013-05-19 16:44:00,81.9,63.3,29.98,South,189,0.0,6.0,53,0.00,,,0.00,WUHU216DAVISVP2,2013-05-19 20:44:00,
2013-05-19 16:49:00,81.8,63.7,29.98,South,182,2.0,10.0,54,0.00,,,0.00,WUHU216DAVISVP2,2013-05-19 20:49:00,
2013-05-19 16:54:00,81.7,63.1,29.98,SE,133,0.0,10.0,53,0.00,,,0.00,WUHU216DAVISVP2,2013-05-19 20:54:00,
2013-05-19 16:59:00,81.7,63.6,29.98,SSE,167,4.0,8.0,54,0.00,,,0.00,WUHU216DAVISVP2,2013-05-19 20:59:00,
2013-05-19 17:04:00,81.8,63.2,29.98,SSE,168,6.0,10.0,53,0.00,,,0.00,WUHU216DAVISVP2,2013-05-19 21:04:00,
2013-05-19 17:09:00,81.8,63.2,29.98,SE,144,0.0,10.0,53,0.00,,,0.00,WUHU216DAVISVP2,2013-05-19 21:09:00,
2013-05-19 17:14:00,81.7,63.6,29.98,SSW,198,8.0,8.0,54,0.00,,,0.00,WUHU216DAVISVP2,2013-05-19 21:14:00,
2013-05-19 17:19:00,81.4,63.3,29.97,South,180,0.0,8.0,54,0.00,,,0.00,WUHU216DAVISVP2,2013-05-19 21:19:00,
2013-05-19 17:24:00,81.2,63.7,29.97,SSW,207,0.0,8.0,55,0.00,,,0.00,WUHU216DAVISVP2,2013-05-19 21:24:00,
2013-05-19 17:29:00,81.0,64.0,29.98,SSW,195,0.0,8.0,56,0.00,,,0.00,WUHU216DAVISVP2,2013-05-19 21:29:00,
2013-05-19 17:34:00,80.8,64.4,29.98,South,171,2.0,8.0,57,0.00,,,0.00,WUHU216DAVISVP2,2013-05-19 21:34:00,
2013-05-19 17:39:00,80.5,64.6,29.97,SSW,211,0.0,8.0,58,0.00,,,0.00,WUHU216DAVISVP2,2013-05-19 21:39:00,
2013-05-19 17:44:00,80.3,63.9,29.97,South,178,4.0,8.0,57,0.00,,,0.00,WUHU216DAVISVP2,2013-05-19 21:44:00,
2013-05-19 17:49:00,80.5,65.6,29.97,SSW,196,0.0,8.0,60,0.00,,,0.00,WUHU216DAVISVP2,2013-05-19 21:49:00,
2013-05-19 17:54:00,80.8,64.4,29.97,South,186,2.0,10.0,57,0.00,,,0.00,WUHU216DAVISVP2,2013-05-19 21:54:00,
2013-05-19 17:59:00,81.0,64.5,29.97,ESE,119,0.0,10.0,57,0.00,,,0.00,WUHU216DAVISVP2,2013-05-19 21:59:00,
2013-05-19 18:05:00,81.2,63.7,29.97,SSE,157,0.0,10.0,55,0.00,,,0.00,WUHU216DAVISVP2,2013-05-19 22:05:00,
2013-05-19 18:10:00,81.1,63.1,29.96,South,183,0.0,10.0,54,0.00,,,0.00,WUHU216DAVISVP2,2013-05-19 22:10:00,
2013-05-19 18:15:00,81.0,64.5,29.97,South,183,0.0,4.0,57,0.00,,,0.00,WUHU216DAVISVP2,2013-05-19 22:15:00,
2013-05-19 18:20:00,80.7,64.8,29.96,South,183,0.0,2.0,58,0.00,,,0.00,WUHU216DAVISVP2,2013-05-19 22:20:00,
2013-05-19 18:25:00,80.3,65.4,29.96,South,183,0.0,2.0,60,0.00,,,0.00,WUHU216DAVISVP2,2013-05-19 22:25:00,
2013-05-19 18:30:00,80.0,65.6,29.96,South,183,0.0,2.0,61,0.00,,,0.00,WUHU216DAVISVP2,2013-05-19 22:30:00,
2013-05-19 18:35:00,79.7,65.3,29.96,South,179,0.0,2.0,61,0.00,,,0.00,WUHU216DAVISVP2,2013-05-19 22:35:00,
2013-05-19 18:40:00,79.5,65.6,29.96,South,179,0.0,2.0,62,0.00,,,0.00,WUHU216DAVISVP2,2013-05-19 22:40:00,
2013-05-19 18:45:00,79.3,65.9,29.96,South,179,0.0,0.0,63,0.00,,,0.00,WUHU216DAVISVP2,2013-05-19 22:45:00,
2013-05-19 18:50:00,79.0,65.6,29.96,South,179,0.0,0.0,63,0.00,,,0.00,WUHU216DAVISVP2,2013-05-19 22:50:00,
2013-05-19 18:55:00,78.9,66.4,29.96,South,179,0.0,0.0,65,0.00,,,0.00,WUHU216DAVISVP2,2013-05-19 22:55:00,
2013-05-19 19:00:00,78.6,64.3,29.96,East,92,0.0,10.0,61,0.00,,,0.00,WUHU216DAVISVP2,2013-05-19 23:00:00,
2013-05-19 19:05:00,78.4,65.0,29.96,East,84,0.0,10.0,63,0.00,,,0.00,WUHU216DAVISVP2,2013-05-19 23:05:00,
2013-05-19 19:10:00,78.1,64.3,29.96,SSE,165,0.0,10.0,62,0.00,,,0.00,WUHU216DAVISVP2,2013-05-19 23:10:00,
2013-05-19 19:15:00,78.0,64.2,29.96,SE,134,0.0,10.0,62,0.00,,,0.00,WUHU216DAVISVP2,2013-05-19 23:15:00,
2013-05-19 19:20:00,77.9,64.1,29.96,ESE,115,2.0,4.0,62,0.00,,,0.00,WUHU216DAVISVP2,2013-05-19 23:20:00,
2013-05-19 19:25:00,77.8,64.4,29.96,SE,138,0.0,6.0,63,0.00,,,0.00,WUHU216DAVISVP2,2013-05-19 23:25:00,
2013-05-19 19:30:00,77.7,63.9,29.96,South,176,0.0,8.0,62,0.00,,,0.00,WUHU216DAVISVP2,2013-05-19 23:30:00,
2013-05-19 19:35:00,77.6,64.2,29.96,SE,130,0.0,8.0,63,0.00,,,0.00,WUHU216DAVISVP2,2013-05-19 23:35:00,
2013-05-19 19:40:00,77.6,64.2,29.96,South,182,0.0,8.0,63,0.00,,,0.00,WUHU216DAVISVP2,2013-05-19 23:40:00,
2013-05-19 19:45:00,77.5,64.6,29.96,South,186,0.0,8.0,64,0.00,,,0.00,WUHU216DAVISVP2,2013-05-19 23:45:00,
2013-05-19 19:51:00,77.4,64.0,29.96,SSE,161,2.0,8.0,63,0.00,,,0.00,WUHU216DAVISVP2,2013-05-19 23:51:00,
2013-05-19 19:56:00,77.3,64.8,29.97,SSE,161,0.0,2.0,65,0.00,,,0.00,WUHU216DAVISVP2,2013-05-19 23:56:00,
2013-05-19 20:01:00,77.0,64.6,29.97,SSW,192,0.0,8.0,65,0.00,,,0.00,WUHU216DAVISVP2,2013-05-20 00:01:00,
2013-05-19 20:06:00,76.7,63.8,29.96,SSE,148,0.0,8.0,64,0.00,,,0.00,WUHU216DAVISVP2,2013-05-20 00:06:00,
2013-05-19 20:11:00,76.5,64.1,29.97,South,178,4.0,6.0,65,0.00,,,0.00,WUHU216DAVISVP2,2013-05-20 00:11:00,
2013-05-19 20:16:00,76.3,63.9,29.97,ESE,117,0.0,6.0,65,0.00,,,0.00,WUHU216DAVISVP2,2013-05-20 00:16:00,
2013-05-19 20:21:00,76.0,64.0,29.97,ESE,115,0.0,4.0,66,0.00,,,0.00,WUHU216DAVISVP2,2013-05-20 00:21:00,
2013-05-19 20:26:00,75.7,64.2,29.97,SE,141,2.0,2.0,67,0.00,,,0.00,WUHU216DAVISVP2,2013-05-20 00:26:00,
2013-05-19 20:31:00,75.3,63.8,29.97,South,171,2.0,8.0,67,0.00,,,0.00,WUHU216DAVISVP2,2013-05-20 00:31:00,
2013-05-19 20:36:00,75.1,64.0,29.97,South,171,0.0,8.0,68,0.00,,,0.00,WUHU216DAVISVP2,2013-05-20 00:36:00,
2013-05-19 20:41:00,74.8,63.7,29.97,SW,218,0.0,10.0,68,0.00,,,0.00,WUHU216DAVISVP2,2013-05-20 00:41:00,
2013-05-19 20:46:00,74.6,63.5,29.97,SE,134,2.0,10.0,68,0.00,,,0.00,WUHU216DAVISVP2,2013-05-20 00:46:00,
2013-05-19 20:51:00,74.3,63.7,29.97,SE,134,0.0,6.0,69,0.00,,,0.00,WUHU216DAVISVP2,2013-05-20 00:51:00,
2013-05-19 20:56:00,74.0,63.4,29.97,SSW,201,0.0,6.0,69,0.00,,,0.00,WUHU216DAVISVP2,2013-05-20 00:56:00,
2013-05-19 21:01:00,73.8,63.6,29.98,SE,139,2.0,6.0,70,0.00,,,0.00,WUHU216DAVISVP2,2013-05-20 01:01:00,
2013-05-19 21:06:00,73.7,63.5,29.98,SSE,153,0.0,6.0,70,0.00,,,0.00,WUHU216DAVISVP2,2013-05-20 01:06:00,
2013-05-19 21:11:00,73.5,63.7,29.98,South,176,6.0,6.0,71,0.00,,,0.00,WUHU216DAVISVP2,2013-05-20 01:11:00,
2013-05-19 21:16:00,73.2,63.4,29.99,SSW,202,0.0,6.0,71,0.00,,,0.00,WUHU216DAVISVP2,2013-05-20 01:16:00,
2013-05-19 21:21:00,73.0,63.2,29.99,SSE,161,2.0,6.0,71,0.00,,,0.00,WUHU216DAVISVP2,2013-05-20 01:21:00,
2013-05-19 21:26:00,72.8,63.0,29.99,SSE,161,0.0,6.0,71,0.00,,,0.00,WUHU216DAVISVP2,2013-05-20 01:26:00,
2013-05-19 21:31:00,72.6,63.2,29.99,SE,124,0.0,4.0,72,0.00,,,0.00,WUHU216DAVISVP2,2013-05-20 01:31:00,
2013-05-19 21:36:00,72.4,63.0,29.99,South,173,4.0,6.0,72,0.00,,,0.00,WUHU216DAVISVP2,2013-05-20 01:36:00,
2013-05-19 21:42:00,72.2,63.2,29.99,SSE,168,0.0,6.0,73,0.00,,,0.00,WUHU216DAVISVP2,2013-05-20 01:42:00,
2013-05-19 21:47:00,72.0,63.0,29.99,SSW,195,8.0,10.0,73,0.00,,,0.00,WUHU216DAVISVP2,2013-05-20 01:47:00,
2013-05-19 21:52:00,72.0,63.0,29.99,SE,144,8.0,16.0,73,0.00,,,0.00,WUHU216DAVISVP2,2013-05-20 01:52:00,
2013-05-19 21:57:00,72.0,63.0,29.99,South,182,4.0,16.0,73,0.00,,,0.00,WUHU216DAVISVP2,2013-05-20 01:57:00,
2013-05-19 22:02:00,71.9,62.9,29.99,SSW,193,4.0,14.0,73,0.00,,,0.00,WUHU216DAVISVP2,2013-05-20 02:02:00,
2013-05-19 22:07:00,71.9,62.9,30.00,South,170,8.0,16.0,73,0.00,,,0.00,WUHU216DAVISVP2,2013-05-20 02:07:00,
2013-05-19 22:12:00,72.0,63.0,29.99,SSE,165,0.0,16.0,73,0.00,,,0.00,WUHU216DAVISVP2,2013-05-20 02:12:00,
2013-05-19 22:17:00,71.9,63.3,29.99,SSW,202,10.0,12.0,74,0.00,,,0.00,WUHU216DAVISVP2,2013-05-20 02:17:00,
2013-05-19 22:22:00,71.7,63.1,29.99,West,261,4.0,14.0,74,0.00,,,0.00,WUHU216DAVISVP2,2013-05-20 02:22:00,
2013-05-19 22:27:00,71.6,63.0,29.99,South,171,4.0,16.0,74,0.00,,,0.00,WUHU216DAVISVP2,2013-05-20 02:27:00,
2013-05-19 22:32:00,71.4,62.8,29.99,SSE,165,2.0,16.0,74,0.00,,,0.00,WUHU216DAVISVP2,2013-05-20 02:32:00,
2013-05-19 22:37:00,71.3,63.1,29.99,SSW,213,4.0,14.0,75,0.00,,,0.00,WUHU216DAVISVP2,2013-05-20 02:37:00,
2013-05-19 22:42:00,71.2,63.0,29.99,SSW,199,4.0,14.0,75,0.00,,,0.00,WUHU216DAVISVP2,2013-05-20 02:42:00,
2013-05-19 22:47:00,71.1,62.9,29.98,South,170,6.0,20.0,75,0.00,,,0.00,WUHU216DAVISVP2,2013-05-20 02:47:00,
2013-05-19 22:52:00,71.0,63.2,29.98,SSW,204,4.0,20.0,76,0.00,,,0.00,WUHU216DAVISVP2,2013-05-20 02:52:00,
2013-05-19 22:57:00,70.9,63.1,29.98,SSW,205,8.0,12.0,76,0.00,,,0.00,WUHU216DAVISVP2,2013-05-20 02:57:00,
2013-05-19 23:02:00,70.8,63.0,29.98,South,188,2.0,14.0,76,0.00,,,0.00,WUHU216DAVISVP2,2013-05-20 03:02:00,
2013-05-19 23:07:00,70.7,62.9,29.98,SSW,200,0.0,14.0,76,0.00,,,0.00,WUHU216DAVISVP2,2013-05-20 03:07:00,
2013-05-19 23:12:00,70.5,63.1,29.98,SSW,192,0.0,12.0,77,0.00,,,0.00,WUHU216DAVISVP2,2013-05-20 03:12:00,
2013-05-19 23:17:00,70.4,63.0,29.98,South,183,0.0,12.0,77,0.00,,,0.00,WUHU216DAVISVP2,2013-05-20 03:17:00,
2013-05-19 23:22:00,70.3,62.9,29.98,SSW,207,0.0,10.0,77,0.00,,,0.00,WUHU216DAVISVP2,2013-05-20 03:22:00,
2013-05-19 23:27:00,70.2,62.8,29.98,SW,229,2.0,10.0,77,0.00,,,0.00,WUHU216DAVISVP2,2013-05-20 03:27:00,
2013-05-19 23:32:00,70.1,63.0,29.98,South,186,0.0,14.0,78,0.00,,,0.00,WUHU216DAVISVP2,2013-05-20 03:32:00,
2013-05-19 23:37:00,70.0,62.9,29.98,SE,128,4.0,14.0,78,0.00,,,0.00,WUHU216DAVISVP2,2013-05-20 03:37:00,
2013-05-19 23:43:00,69.9,62.8,29.98,SE,125,8.0,10.0,78,0.00,,,0.00,WUHU216DAVISVP2,2013-05-20 03:43:00,
2013-05-19 23:48:00,69.8,62.7,29.98,NE,51,2.0,12.0,78,0.00,,,0.00,WUHU216DAVISVP2,2013-05-20 03:48:00,
2013-05-19 23:53:00,69.7,62.6,29.98,South,187,2.0,10.0,78,0.00,,,0.00,WUHU216DAVISVP2,2013-05-20 03:53:00,
2013-05-19 23:58:00,69.6,62.9,29.98,South,175,2.0,10.0,79,0.00,,,0.00,WUHU216DAVISVP2,2013-05-20 03:58:00,